Regional Weather Roundup
Issued by NWS Green Bay, WI

Home | Current Version | Previous Version | Graphics & Text | Print | Product List | Glossary Off
Versions: 1 2 3 4 5 6 7 8 9 10 11 12 13 14 15 16 17 18 19 20 21 22 23 24 25 26 27 28 29 30 31 32 33 34 35 36 37 38 39 40 41 42 43 44 45 46 47 48 49 50

000
ASUS43 KGRB 130659
RWRGRB

NORTH-CENTRAL AND NORTHEAST WISCONSIN REGIONAL WEATHER ROUNDUP
NATIONAL WEATHER SERVICE GREEN BAY WI
200 AM CDT SUN JUL 13 2014

WIZ005-009-010>012-018-019-130800-
NORTH CENTRAL WISCONSIN

CITY           SKY/WX    TMP DP  RH WIND       PRES   REMARKS
IRONWOOD       PTCLDY   N/A N/A N/A W9G17     29.81S
MANITOWISH WTR NOT AVBL
ARBOR VITAE    NOT AVBL
EAGLE RIVER    NOT AVBL
LAND O LAKES   NOT AVBL
RHINELANDER    CLOUDY    62  61  96 W10       29.87F
PHILLIPS       NOT AVBL
ANTIGO         NOT AVBL
TOMAHAWK       NOT AVBL
MERRILL        NOT AVBL
$$

WIZ013-073-130800-
NORTHEAST WISCONSIN

CITY           SKY/WX    TMP DP  RH WIND       PRES   REMARKS
IRON MOUNTAIN  CLEAR     63  60  90 W7        29.79F
MARINETTE      CLEAR     61  59  94 W5        29.79F
$$

WIZ017-030-035>037-045-130800-
CENTRAL WISCONSIN

CITY           SKY/WX    TMP DP  RH WIND       PRES   REMARKS
MEDFORD        NOT AVBL
WAUSAU         MOCLDY    63  61  93 NW8       29.86F
MOSINEE        NOT AVBL
MARSHFIELD     FOG       62  61  96 W10       29.88F VSB 3/4
WISC RAPIDS    CLEAR     62  61  96 W5        29.89F
STEVENS POINT  NOT AVBL
WAUPACA        NOT AVBL
SHAWANO        NOT AVBL
CLINTONVILLE   NOT AVBL
$$

WIZ038-039-048-051-130800-
FOX VALLEY

CITY           SKY/WX    TMP DP  RH WIND       PRES   REMARKS
NWS GREEN BAY  CLEAR     63  62  97 W5        29.83S
APPLETON       NOT AVBL
OSHKOSH        CLEAR     64  63  96 VRB3      29.84F
FOND DU LAC    CLEAR     63  61  93 SW5       29.86F
$$

WIZ022-050-052-130800-
EAST CENTRAL WISCONSIN

CITY           SKY/WX    TMP DP  RH WIND       PRES   REMARKS
STURGEON BAY   CLEAR     63  59  88 W6        29.81F
MANITOWOC      NOT AVBL
SHEBOYGAN      CLEAR     64  61  90 W8        29.84S
$$

LMZ563-521-522-541>543-130800-
LAKESHORE

STATION/POSITION TIME  TEMP    WIND        PRES    VSBY  WAVE
                       AIR SEA DIR/SP/G                  HT/PER
                 (UTC) (F)     (DEG/KT/KT) (MB)    (MI)  (FT/S)
SHEBOYGAN LKSHOR 0600   67     230/  6/  6 1010.2R
KEWAUNEE LKSHORE 0600   63     290/  4/  5 1010.6F
NORTHPORT PIER   0600   66     280/  6/  9 1008.8S
N MID LAKE BUOY  0600   59 58  200/  4/  6 1008.1F         1/ 3
SISTER BAY LKSHO 0600   66     300/ 10/ 11   N/A
MENOMINEE LKSHOR 0600   63     210/  5/  6 1010.1F
$$



USA.gov is the U.S. government's official web portal to all federal, state and local government web resources and services.